EW2795 Weather Reports


Display with metric or nautical units.
time (UTC)temp
F
wind
direction
speed
MPH
gust
MPH
rain 1hr
in
rain 24hr
in
rain mn
in
humidity
%
barometer
mb
20260904074517 70 180 0.0 0.0 0.00 0.00 0.00 94 1011.7
20260904073010 70 179 0.0 0.0 0.00 0.00 0.00 94 1011.8
20260904071555 70 180 0.0 0.0 0.00 0.00 0.00 94 1011.9
20260904070052 70 180 0.0 0.0 0.00 0.00 0.00 94 1011.9
20260904064535 70 180 0.0 0.0 0.00 0.00 0.00 93 1011.9
20260904063026 71 179 0.0 0.0 0.00 0.00 0.00 92 1011.9
20260904061511 71 179 0.0 0.0 0.00 0.00 0.00 92 1011.9
20260904060057 71 180 0.0 0.0 0.00 0.00 0.00 92 1012.0
20260904060003 71 180 0.0 0.0 0.00 0.00 0.00 92 1012.0
20260904054553 72 180 1.0 0.0 0.00 0.00 0.00 91 1012.1
20260904053039 72 180 0.0 0.0 0.00 0.00 0.00 91 1012.2
20260904051525 72 180 1.0 0.0 0.00 0.00 0.00 91 1012.2
20260904050017 72 171 1.0 0.0 0.00 0.00 0.00 91 1012.1
20260904044507 72 182 1.0 0.0 0.00 0.00 0.00 90 1012.3
20260904043057 72 180 1.0 0.0 0.00 0.00 0.00 90 1012.2
20260904043001 72 180 1.0 0.0 0.00 0.00 0.00 90 1012.2
20260904041551 72 172 1.0 0.0 0.00 0.00 0.00 90 1012.2
20260904040025 72 160 0.0 0.0 0.00 0.00 0.00 90 1012.2
20260904034518 72 175 1.0 0.0 0.00 0.00 0.00 90 1012.2
20260904033015 73 178 1.0 0.0 0.00 0.00 0.00 90 1012.5
20260904031504 73 63 0.0 0.0 0.00 0.00 0.00 90 1012.6
20260904024537 73 60 0.0 0.0 0.00 0.00 0.00 89 1012.6
20260904023028 73 60 0.0 0.0 0.00 0.00 0.00 89 1012.7
20260904021526 74 60 0.0 0.0 0.00 0.00 0.00 88 1012.7
20260904020010 74 60 1.0 0.0 0.00 0.00 0.00 88 1012.6
20260904014508 74 59 2.0 0.0 0.00 0.00 0.00 87 1012.6
20260904013056 74 76 2.0 0.0 0.00 0.00 0.00 87 1012.8
20260904011551 74 53 2.0 0.0 0.00 0.00 0.00 87 1012.0
20260904010042 75 42 1.0 0.0 0.00 0.00 0.00 86 1012.6
20260904004532 75 41 1.0 0.0 0.00 0.00 0.00 85 1012.5
20260904003032 76 42 1.0 0.0 0.00 0.00 0.00 83 1012.3
20260904001524 77 37 4.0 0.0 0.00 0.00 0.00 80 1012.4
20260904000022 79 26 4.0 0.0 0.00 0.00 0.00 77 1012.6
20260903234515 80 105 7.0 0.0 0.00 0.00 0.00 73 1013.0
20260903233004 88 241 0.0 0.0 0.00 0.00 0.00 75 1011.5
20260903231554 90 241 0.0 0.0 0.00 0.00 0.00 73 1011.1
20260903230052 89 241 1.0 0.0 0.00 0.00 0.00 72 1011.2
20260903224550 90 277 1.0 0.0 0.00 0.00 0.00 67 1011.3
20260903223034 91 219 2.0 0.0 0.00 0.00 0.00 66 1010.9
20260903221533 92 242 3.0 0.0 0.00 0.00 0.00 65 1010.9
20260903220020 90 283 2.0 0.0 0.00 0.00 0.00 67 1011.0
20260903214513 90 265 2.0 0.0 0.00 0.00 0.00 66 1011.0
20260903213105 91 286 2.0 0.0 0.00 0.00 0.00 66 1010.8
20260903213001 91 210 2.0 0.0 0.00 0.00 0.00 65 1010.8
20260903211545 91 255 2.0 0.0 0.00 0.00 0.00 65 1010.4
20260903210048 91 232 4.0 0.0 0.00 0.00 0.00 64 1010.2
20260903204524 92 203 3.0 0.0 0.00 0.00 0.00 65 1009.9
20260903203011 92 222 4.0 0.0 0.00 0.00 0.00 64 1009.8
20260903201600 92 258 5.0 0.0 0.00 0.00 0.00 64 1009.9
20260903201503 92 215 5.0 0.0 0.00 0.00 0.00 64 1009.9
20260903200057 92 225 3.0 0.0 0.00 0.00 0.00 65 1010.2
20260903194544 93 235 3.0 0.0 0.00 0.00 0.00 67 1010.4
20260903193035 92 217 3.0 0.0 0.00 0.00 0.00 64 1011.0
20260903191534 92 227 4.0 0.0 0.00 0.00 0.00 67 1011.5
20260903190018 92 202 4.0 0.0 0.00 0.00 0.00 66 1011.5
20260903184507 92 247 3.0 0.0 0.00 0.00 0.00 66 1011.5
20260903183055 92 227 3.0 0.0 0.00 0.00 0.00 63 1011.6
20260903181547 91 240 3.0 0.0 0.00 0.00 0.00 64 1012.0
20260903180042 91 263 2.0 0.0 0.00 0.00 0.00 68 1012.1
20260903174526 91 210 4.0 0.0 0.00 0.00 0.00 68 1012.3
20260903173015 91 212 3.0 0.0 0.00 0.00 0.00 69 1012.5
20260903171507 90 210 3.0 0.0 0.00 0.00 0.00 68 1012.6
20260903170047 90 268 3.0 0.0 0.00 0.00 0.00 70 1012.8
20260903164537 90 311 3.0 0.0 0.00 0.00 0.00 70 1012.8
20260903163025 89 272 3.0 0.0 0.00 0.00 0.00 71 1013.0
20260903161516 88 242 3.0 0.0 0.00 0.00 0.00 71 1013.0
20260903160127 88 218 4.0 0.0 0.00 0.00 0.00 75 1013.0
20260903160003 88 197 4.0 0.0 0.00 0.00 0.00 74 1013.0
20260903154606 88 223 3.0 0.0 0.00 0.00 0.00 74 1012.9
20260903153035 87 213 2.0 0.0 0.00 0.00 0.00 74 1013.1
20260903151529 87 207 2.0 0.0 0.00 0.00 0.00 75 1013.1
20260903150018 86 258 1.0 0.0 0.00 0.00 0.00 74 1013.2
20260903144605 85 265 2.0 0.0 0.00 0.00 0.00 76 1013.0
20260903144502 85 264 2.0 0.0 0.00 0.00 0.00 76 1013.1
20260903143104 83 247 3.0 0.0 0.00 0.00 0.00 79 1013.4
20260903141556 82 228 2.0 0.0 0.00 0.00 0.00 81 1013.3
20260903140026 82 217 1.0 0.0 0.00 0.00 0.00 82 1013.5
20260903134517 81 219 3.0 0.0 0.00 0.00 0.00 83 1013.4
20260903133013 79 213 2.0 0.0 0.00 0.00 0.00 85 1013.6
20260903131553 79 216 1.0 0.0 0.00 0.00 0.00 86 1013.5
20260903130039 79 200 2.0 0.0 0.00 0.00 0.00 87 1013.6
20260903124524 78 206 1.0 0.0 0.00 0.00 0.00 89 1013.8
20260903123028 76 199 1.0 0.0 0.00 0.00 0.00 94 1013.9
20260903121513 74 198 0.0 0.0 0.00 0.00 0.00 96 1013.9
20260903120105 73 198 0.0 0.0 0.00 0.00 0.00 96 1013.9
20260903120005 73 198 0.0 0.0 0.00 0.00 0.00 96 1013.9
20260903114551 73 198 0.0 0.0 0.00 0.00 0.00 96 1013.7
20260903113051 73 198 0.0 0.0 0.00 0.00 0.00 96 1013.6
20260903111543 73 198 0.0 0.0 0.00 0.00 0.00 96 1013.5
20260903110048 73 198 0.0 0.0 0.00 0.00 0.00 96 1013.3
20260903104530 72 198 0.0 0.0 0.00 0.00 0.00 95 1013.1
20260903103020 72 198 0.0 0.0 0.00 0.00 0.00 95 1012.9
20260903101506 72 198 0.0 0.0 0.00 0.00 0.00 95 1012.8
20260903100054 72 198 0.0 0.0 0.00 0.00 0.00 95 1012.8
20260903094544 73 198 0.0 0.0 0.00 0.00 0.00 94 1012.6
20260903093030 73 198 0.0 0.0 0.00 0.00 0.00 94 1012.5
20260903091523 73 198 0.0 0.0 0.00 0.00 0.00 93 1012.5
20260903090018 73 198 0.0 0.0 0.00 0.00 0.00 93 1012.4
20260903084506 74 198 0.0 0.0 0.00 0.00 0.00 92 1012.4
20260903083054 74 198 0.0 0.0 0.00 0.00 0.00 92 1012.3
20260903081556 74 198 0.0 0.0 0.00 0.00 0.00 91 1012.5
20260903080044 75 198 1.0 0.0 0.00 0.00 0.00 91 1012.4